Buffalo, SD

4:51 PM MDT on September 19, 2017 (GMT -0600)
Buffalo

Weather History for K2WX - May, 2013

Change the Weather History Date:

Wednesday, May 8, 2013

  Actual Average Record
Temperature  
Mean Temperature 60 °F 51 °F  
Max Temperature 75 °F 63 °F 82 °F (2004)
Min Temperature 45 °F 39 °F 30 °F (2002)
Degree Days  
Heating Degree Days 5 14  
Month to date heating degree days 133 121  
Since 1 July heating degree days 7357 7574  
Cooling Degree Days 0 0  
Month to date cooling degree days 0 0  
Year to date cooling degree days 0 0  
Growing Degree Days 10 (Base 50)    
Moisture  
Dew Point 39 °F    
Average Humidity 53    
Maximum Humidity 80    
Minimum Humidity 25    
Precipitation  
Precipitation 0.00 in 0.06 in 0.45 in (2008)
Month to date precipitation 0.00 0.41  
Year to date precipitation 1.64 3.30  
Sea Level Pressure  
Sea Level Pressure 29.94 in    
Wind  
Wind Speed 9 mph (ENE)    
Max Wind Speed 22 mph    
Max Gust Speed 26 mph    
T = Trace of Precipitation, MM = Missing Value Source: NWS Daily Summary

Daily Weather History Graph

Daily Weather History Graph

Search for Another Location

Airport or City:

Trip Planner

Search our weather history database for the weather conditions in past years. The results will help you decide how hot, cold, wet, or windy it might be!

Date:

Astronomy

May. 08, 2013 Rise Set
Actual Time 5:31 AM MDT 8:10 PM MDT
Civil Twilight 4:57 AM MDT 8:44 PM MDT
Nautical Twilight 4:15 AM MDT 9:26 PM MDT
Astronomical Twilight 3:26 AM MDT 10:16 PM MDT
Moon 4:45 AM MDT (5/8) 7:08 PM MDT (5/8)
Length of Visible Light 15h 46m
Length of Day
14h 38m
Waning Crescent, 2% of the Moon is Illuminated
May 8
Waning Crescent
May 9
New
May 17
First Quarter
May 24
Full
May 31
Last Quarter

Hourly Weather History & Observations

Time (MDT) Temp. Dew Point Humidity Pressure Visibility Wind Dir Wind Speed Gust Speed Precip Events Conditions
12:56 AM 51.1 °F 41.0 °F 68% 29.83 in - Calm Calm - N/A   Unknown
1:56 AM 52.0 °F 41.0 °F 66% 29.82 in - Calm Calm - N/A   Unknown
2:56 AM 51.1 °F 41.0 °F 68% 29.83 in - Calm Calm - N/A   Unknown
3:56 AM 48.9 °F 41.0 °F 74% 29.85 in - Calm Calm - N/A   Unknown
4:56 AM 48.0 °F 41.0 °F 77% 29.86 in - Calm Calm - N/A   Unknown
5:56 AM 48.9 °F 42.1 °F 77% 29.88 in - Calm Calm - N/A   Unknown
6:56 AM 48.0 °F 42.1 °F 80% 29.90 in - Calm Calm - N/A   Unknown
7:56 AM 55.9 °F 44.1 °F 64% 29.92 in - Calm Calm - N/A   Unknown
8:56 AM 64.0 °F 44.1 °F 48% 29.93 in - ENE 11.5 mph - N/A   Unknown
9:56 AM 66.9 °F 43.0 °F 42% 29.94 in - East 11.5 mph - N/A   Unknown
10:56 AM 70.0 °F 42.1 °F 36% 29.95 in - ESE 12.7 mph 20.7 mph N/A   Unknown
11:56 AM 69.1 °F 37.9 °F 32% 29.96 in - NE 13.8 mph 19.6 mph N/A   Unknown
12:56 PM 73.9 °F 36.0 °F 25% 29.96 in - NE 9.2 mph - N/A   Unknown
1:56 PM 72.0 °F 36.0 °F 27% 29.96 in - NE 11.5 mph 19.6 mph N/A   Unknown
2:56 PM 71.1 °F 34.0 °F 26% 29.96 in - North 12.7 mph - N/A   Unknown
3:56 PM 71.1 °F 36.0 °F 28% 29.97 in - NE 15.0 mph - N/A   Unknown
4:56 PM 72.0 °F 37.0 °F 28% 29.97 in - ENE 16.1 mph - N/A   Unknown
5:56 PM 71.1 °F 37.0 °F 29% 29.98 in - ENE 12.7 mph - N/A   Unknown
6:56 PM 69.1 °F 37.0 °F 31% 29.99 in - ENE 16.1 mph - N/A   Unknown
7:56 PM 63.0 °F 37.9 °F 40% 30.00 in - ENE 13.8 mph - N/A   Unknown
8:56 PM 57.9 °F 37.9 °F 47% 30.02 in - ENE 13.8 mph - N/A   Unknown
9:56 PM 54.0 °F 39.9 °F 59% 30.04 in - ENE 15.0 mph - N/A   Unknown
10:56 PM 50.0 °F 39.0 °F 66% 30.05 in - ENE 13.8 mph - N/A   Unknown
11:56 PM 48.0 °F 39.0 °F 71% 30.07 in - ENE 11.5 mph - N/A   Unknown